Content
SEND FEEDBACK

Daily
Averages
Monthly
Summary
United States of America

DIGHTON, MASSACHUSETTS


Home > North America > United States > Massachusetts
Elevation: 40 feet     Latitude: 41 50N     Longitude: 071 07W

WEATHER
 
SELECT A DAY
Number of Records: 202,066;   Date Range: 4/19/97 - 8/12/14
 
SHARE

PRINT THIS DATA

[ ← Previous Day ]
WEATHER ALMANAC - FEBRUARY 13, 2013
[ Next Day → ]
[ °C ]   °F
Weather ElementAverageHighLow
Temperature33.6 °F42.1 °F (3:52 pm)21.9 °F (6:52 am)
Dewpoint21.9 °F25 °F (8:52 pm)18 °F (6:52 am)
Humidity64.1 %85 % (6:52 am)45 % (12:52 pm)
Barometer29.80 in29.88 in (8:52 am)29.69 in (10:52 pm)
Wind Speed3.6 mph9.2 mph (12:52 pm)
Wind Gust17.3 mph (12:52 pm)
Weather ElementAverage
Visibility10 mi
Wind DirectionESE (121.3 °)

Weather ElementTotal
Precipitation---
Heating Degree Days33 (Base 65)
Averaged from 23 records on February 13, 2013
WEATHER CONDITIONS BREAKOUT
WIND DIRECTION BREAKOUT
WEATHER BY HOUR - FEBRUARY 13, 2013
[ °C ]   °F
Local TimeTemperatureDewpointHumidityBarometerVisibilityWind DirectionWind SpeedGust SpeedPrecipitationEventsConditions
1:52 AM33.1 °F21.0 °F61 %29.84 in10.0 miSW (230°)3.5 mphClear
2:52 AM32.0 °F19.9 °F61 %29.86 in10.0 miWSW (240°)5.8 mphClear
3:52 AM32.0 °F19.0 °F59 %29.86 in10.0 miWest (260°)6.9 mphClear
4:52 AM27.0 °F19.0 °F72 %29.87 in10.0 miCalmScattered Clouds
5:52 AM24.1 °F19.0 °F81 %29.87 in10.0 miCalmClear
6:52 AM21.9 °F18.0 °F85 %29.87 in10.0 miCalmClear
7:52 AM26.1 °F21.0 °F81 %29.86 in10.0 miCalmClear
8:52 AM35.1 °F19.9 °F54 %29.88 in10.0 miWSW (250°)6.9 mphClear
9:52 AM37.9 °F21.0 °F51 %29.86 in10.0 miVariable4.6 mphClear
10:52 AM39.9 °F21.9 °F49 %29.84 in10.0 miNNW (340°)5.8 mphClear
11:52 AM39.9 °F21.0 °F47 %29.83 in10.0 miWSW (250°)4.6 mphClear
12:52 PM41.0 °F21.0 °F45 %29.82 in10.0 miSSW (210°)9.2 mph17.3 mphClear
1:52 PM41.0 °F21.9 °F47 %29.80 in10.0 miSouth (190°)5.8 mphClear
2:52 PM41.0 °F23.0 °F49 %29.78 in10.0 miVariable6.9 mphClear
3:52 PM42.1 °F23.0 °F47 %29.75 in10.0 miWSW (250°)3.5 mphClear
4:52 PM39.9 °F23.0 °F51 %29.75 in10.0 miSSW (200°)4.6 mphClear
5:52 PM33.1 °F24.1 °F70 %29.75 in10.0 miCalmClear
6:52 PM33.1 °F24.1 °F70 %29.75 in10.0 miVariable3.5 mphClear
7:52 PM30.0 °F24.1 °F79 %29.74 in10.0 miSouth (190°)3.5 mphClear
8:52 PM30.9 °F25.0 °F79 %29.73 in10.0 miSouth (170°)3.5 mphClear
9:52 PM30.0 °F24.1 °F79 %29.72 in10.0 miCalmClear
10:52 PM30.0 °F24.1 °F79 %29.69 in10.0 miNorth (10°)3.5 mphMostly Cloudy
11:52 PM30.9 °F25.0 °F79 %29.71 in10.0 miCalmOvercast
Hourly data recorded from KTAN, located miles away from Dighton, Massachusetts







STORIES FROM OUR PARTNERS